This is the latest recevied weather packets stored in our database for station/object HB9TJM-8. If no packets are shown the sender has not sent any weather packets the latest 10 day(s).
| Time | Temp. | Humidity | Pressure | Rain* | Wind** | Luminosity | Snow |
|---|---|---|---|---|---|---|---|
| 1777023789 | 13.89° C | 44% | 1021.4 hPa | 0 mm | - | 732 W/m² | - |
| 1777023481 | 15° C | 43% | 1021 hPa | 0 mm | - | 726 W/m² | - |
| 1777023173 | 13.89° C | 41% | 1021.1 hPa | 0 mm | - | 715 W/m² | - |
| 1777022866 | 13.89° C | 45% | 1021.3 hPa | 0 mm | - | 702 W/m² | - |
| 1777022558 | 13.89° C | 39% | 1020.9 hPa | 0 mm | - | 687 W/m² | - |
| 1777022558 | 13.89° C | 39% | 1020.9 hPa | 0 mm | - | 687 W/m² | - |
| 1777022251 | 13.33° C | 39% | 1021.2 hPa | 0 mm | - | 687 W/m² | - |
| 1777021943 | 13.33° C | 44% | 1021.2 hPa | 0 mm | - | 682 W/m² | - |
| 1777021636 | 12.78° C | 43% | 1021.3 hPa | 0 mm | - | 665 W/m² | - |
| 1777021329 | 13.33° C | 44% | 1021.3 hPa | 0 mm | - | 659 W/m² | - |
| 1777021022 | 12.78° C | 43% | 1021.1 hPa | 0 mm | - | 647 W/m² | - |
| 1777020714 | 12.22° C | 44% | 1020.8 hPa | 0 mm | - | 635 W/m² | - |
| 1777020406 | 12.78° C | 44% | 1021.2 hPa | 0 mm | - | 622 W/m² | - |
| 1777020098 | 13.33° C | 43% | 1021.4 hPa | 0 mm | - | 611 W/m² | - |
| 1777019791 | 13.33° C | 41% | 1021.5 hPa | 0 mm | - | 599 W/m² | - |
| 1777019483 | 12.78° C | 43% | 1021.1 hPa | 0 mm | - | 586 W/m² | - |
| 1777019176 | 11.67° C | 42% | 1020.9 hPa | 0 mm | - | 573 W/m² | - |
| 1777018868 | 12.78° C | 41% | 1021.3 hPa | 0 mm | - | 559 W/m² | - |
| 1777018254 | 12.78° C | 43% | 1021.2 hPa | 0 mm | - | 530 W/m² | - |
| 1777017947 | 12.78° C | 43% | 1021.3 hPa | 0 mm | - | 515 W/m² | - |
| 1777017639 | 12.78° C | 40% | 1021 hPa | 0 mm | - | 500 W/m² | - |
| 1777017332 | 12.22° C | 43% | 1021.1 hPa | 0 mm | - | 487 W/m² | - |
| 1777017024 | 11.67° C | 43% | 1021.3 hPa | 0 mm | - | 469 W/m² | - |
| 1777016716 | 11.67° C | 42% | 1020.9 hPa | 0 mm | - | 454 W/m² | - |
| 1777016409 | 11.67° C | 42% | 1021.2 hPa | 0 mm | - | 438 W/m² | - |
* Rain latest hour (hover to see other rain measurements)
** Current wind speed in m/s (hover to see current wind gust speed)